STARLINK-34307

导读 | 豆包AI

STARLINK-34307是美国于2025年6月23日发射的星链卫星,隶属于SpaceX公司的星链星座项目。星链项目旨在构建全球卫星互联网星座,为全球提供高速互联网接入服务,覆盖偏远地区和网络基础设施薄弱区域。该卫星的发射进一步扩充了星链星座的规模,推进了星链全球组网进程,强化星座的覆盖能力与服务稳定性。

基本信息
目录编号:
64489
目录名称:
STARLINK-34307
国际标识:
2025-133T
轨道中心:
EARTH
卫星名称:
STARLINK-34307
卫星全名:
STARLINK-34307
卫星状态:
在轨 (已飞行310 天)
发射日期:
2025-06-23 UTC
国别 :
美国 (US)
星等 :
--
轨道信息
数据来源 国际轨道数据
星历时间: 2026-04-29T02:21:56+0800
21小时前
查看轨道信息
半长轴: 6853.343km
偏心率: 0.000114
轨道倾角: 53.158°
近地点辐角 81.343°
升交点赤经 244.307°
平近点角 278.770°
近地点: 474.424km
远地点: 475.988km
周期: 94.105分钟
每日圈数: 15.302031
详细信息
使用方式:
暂无
2D轨道图
3D轨道图
轨道高度分析图
轨道倾角分析图
轨道综合分析图
查看轨道综合分析图